Regional Weather Roundup
Issued by NWS

Home | Current Version | Previous Version | Graphics & Text | Print | Product List | Glossary On
Versions: 1 2 3 4 5 6 7 8 9 10 11 12 13 14 15 16 17 18 19 20 21 22 23 24 25 26 27 28 29 30 31 32 33 34 35 36 37 38 39 40 41 42 43 44 45 46 47 48 49 50
000
ASUS45 KBOU 120907
RWRCO

WEATHER ROUNDUP FOR COLORADO
NATIONAL WEATHER SERVICE DENVER/BOULDER CO
200 AM MST FRI FEB 12 2016

NOTE: "FAIR" INDICATES FEW OR NO CLOUDS BELOW 12000 FEET WITH NO
SIGNIFICANT WEATHER AND/OR OBSTRUCTIONS TO VISIBILITY.

COZ001>005-013-030-031-121000-
...NORTHWEST COLORADO...

CITY           SKY/WX    TMP DP  RH WIND       PRES   REMARKS
CRAIG          CLOUDY    10   7  87 W3        30.41R
HAYDEN         CLOUDY    25  12  58 SE13      30.39S WCI  13
MEEKER         CLOUDY    17  10  74 NE6       30.40R WCI   9
MOUNT WERNER   NOT AVBL
STEAMBOAT SPGS CLOUDY    18  13  81 CALM      30.41S
WALDEN         CLOUDY    25  16  68 SE7       30.40S WCI  17
$$

COZ006>008-011-121000-
...WEST CENTRAL VALLEYS...

CITY           SKY/WX    TMP DP  RH WIND       PRES   REMARKS
GRAND JUNCTION CLOUDY    27  23  85 E5        30.41S WCI  22
MONTROSE       CLOUDY    25  18  74 S6        30.45R WCI  18
EAGLE          CLOUDY    19  18  93 CALM      30.47R
RIFLE          CLOUDY    20  14  77 CALM      30.44R
DELTA          CLOUDY    29  25  84 CALM      30.45R
NUCLA          CLOUDY    30  21  69 E7        30.45S WCI  23
$$

COZ017>023-064>068-121000-
...SOUTHWEST COLORADO...

CITY           SKY/WX    TMP DP  RH WIND       PRES   REMARKS
DURANGO        CLOUDY    25  18  74 N7        30.41R WCI  17
CORTEZ         CLOUDY    22  18  85 NE6       30.41R WCI  14
PAGOSA SPRINGS CLOUDY    21  15  78 CALM      30.42S
TELLURIDE      CLOUDY    31  10  42 SE6       30.48S WCI  25
WOLF CREEK PAS CLOUDY    30   7  37 W5        30.57R WCI  25
$$

COZ009-010-012-014-032>034-037-058>063-121000-
...CENTRAL COLORADO...

CITY           SKY/WX    TMP DP  RH WIND       PRES   REMARKS
ASPEN          CLOUDY    21  12  68 SW7       30.42S WCI  12
BUENA VISTA    CLOUDY    26  20  79 CALM      30.41R
COPPER MTN     CLOUDY    28  14  54 W20G28    30.49R WCI  15
BERTHOUD PASS  MOCLDY    21  10  63 NW38G48   30.42R WCI   1
COTTONWOOD PAS CLOUDY    37  14  38 NW5       30.44S
GUNNISON       CLOUDY    -6 N/A N/A CALM      30.54S
KREMMLING      CLOUDY     1  -4  78 CALM      30.46F
LEADVILLE      CLOUDY    20  10  65 CALM      30.44R
MONARCH PASS   CLOUDY    23  10  58 MISG      30.59S
SALIDA         NOT AVBL
SUNLIGHT       CLOUDY    32   9  37 CALM        N/A
WILKERSON PASS CLOUDY    30  18  59 NW7G16    30.49R WCI  23
$$

COZ069>075-121000-
...SAN LUIS VALLEY/SANGRE DE CRISTO MOUNTAINS...

CITY           SKY/WX    TMP DP  RH WIND       PRES   REMARKS
ALAMOSA        CLOUDY    24  19  81 W3        30.41R
LA VETA PASS   CLOUDY    32  10  40 MISG      30.41F
SAGUACHE       CLOUDY    28  14  54 NW15      30.43S WCI  17
$$

COZ035-036-038>040-121000-
...NORTHERN COLORADO FRONT RANGE...

CITY           SKY/WX    TMP DP  RH WIND       PRES   REMARKS
DENVER INTL AP CLOUDY    34  24  67 SE13      30.26R WCI  25
DMNS CITY PARK   N/A     38  23  54 SE6G14    30.25S
AURORA         MOCLDY    39  24  55 SE17      30.26R
FRONT RANGE AP NOT AVBL
ERIE MUNI ARPT CLOUDY    34  27  73 CALM      30.26R
BOULDER MUN AP CLOUDY    36  27  69 NW6       30.26R
CENTENNIAL     CLOUDY    36  24  62 SE10      30.26S
BROOMFIELD     CLOUDY    37  27  65 SW3       30.26R
FORT COLLINS   CLOUDY    34  25  69 CALM      30.29S
LONGMONT       CLOUDY    37  28  72 N8        30.29R
$$

COZ041-046-047-076>085-087-088-121000-
...PIKES PEAK/PALMER DIVIDE AND SOUTHERN FOOTHILLS...

CITY           SKY/WX    TMP DP  RH WIND       PRES   REMARKS
COLO. SPRINGS  CLOUDY    36  23  59 S3        30.33S
A. F. ACADEMY  CLOUDY    26  20  79 N8        30.31F WCI  17
SCHRIEVER AFB  FAIR      31  22  68 SW3       30.33S
ELLICOTT       CLOUDY   N/A N/A N/A CALM      30.32S
FALCON         CLOUDY    32  21  64 W7        30.33S WCI  26
FORT CARSON    CLOUDY    34  23  63 SW3       30.30F
LIMON          CLOUDY    22  19  89 CALM      30.31R
MONUMENT HILL  CLOUDY    32  23  69 S10       30.32R WCI  24
TRINIDAD       CLOUDY    31  21  66 W13       30.33F WCI  21
$$

COZ042>045-048>051-090-091-121000-
...NORTHEAST COLORADO...

CITY           SKY/WX    TMP DP  RH WIND       PRES   REMARKS
GREELEY ARPT   CLOUDY    34  27  75 N6        30.29R WCI  29
AKRON          CLOUDY    33  26  75 W9        30.27S WCI  25
BURLINGTON     CLOUDY    32  25  75 W10       30.28R WCI  24
WRAY           NOT AVBL
STERLING       CLOUDY    30  27  86 S6        30.26S WCI  24
HOLYOKE        CLEAR     34  30  86 W7        30.26R WCI  28
FORT MORGAN    CLOUDY    34  26  70 W3        30.28S
$$

COZ086-089-092>099-121000-
...SOUTHEAST COLORADO...

CITY           SKY/WX    TMP DP  RH WIND       PRES   REMARKS
PUEBLO         CLOUDY    32  24  72 CALM      30.31S
LA JUNTA       CLOUDY    33  26  75 W7        30.31R WCI  27
LAMAR          CLOUDY    33  28  81 W7        30.29R WCI  27
SPRINGFIELD      N/A     29  23  78 W12       30.30R WCI  19
$$



USA.gov is the U.S. government's official web portal to all federal, state and local government web resources and services.